Home   Weather   Dover   Past weeks

Flag for USA Past Weather in Dover, Delaware, USA — Yesterday and Last 2 Weeks

Now
31 °F

Clear.


Feels Like: 21 °F
Forecast: 29 / 40 °F
Wind: 13 mph from West

Location: Dover Air Force Base

Current Time: Dec 9, 2016 at 5:04:38 am

Latest Report: Dec 9, 2016 at 3:58 am


Visibility: 10 mi

Pressure: 30.18 "Hg

Humidity: 57%

Dew Point: 17 °F

Location of DoverLocation

Past Weather in Dover — Graph

°F

Dover Temperature Yesterday

Maximum temperature yesterday: 45 °F (at 2:58 pm)
Minimum temperature yesterday: 32 °F (at 1:03 am)
Average temperature yesterday: 38 °F

High & Low Weather Summary for the Past Weeks

 TemperatureHumidityPressure
High69 °F (Nov 30, 2:58 pm)100% (Nov 24, 5:58 pm)30.27 "Hg (Nov 24, 5:58 pm)
Low31 °F (Nov 28, 6:58 am)44% (Nov 27, 2:58 pm)29.51 "Hg (Dec 1, 1:58 am)
Average47 °F80%30.04 "Hg
* Reported Nov 24 3:58 am — Dec 9 3:58 am, Dover, Weather by CustomWeather, © 2016

Note: Actual official high and low records may vary slightly from our data, if they occured in-between our weather recording intervals... More about our weather records

Advertising

Dover Weather History for the Previous 24 Hours

Scroll right to see more
 ConditionsComfort  
Time TempWeatherWind HumidityBarometerVisibility
3:58 am
Fri, Dec 9
31 °FClear.13 mph57%30.18 "Hg10 mi
2:58 am31 °FClear.13 mph57%30.18 "Hg10 mi
1:58 am31 °FClear.12 mph55%30.16 "Hg10 mi
12:58 am32 °FClear.16 mph55%30.14 "Hg10 mi
11:58 pm
Thu, Dec 8
33 °FClear.14 mph57%30.14 "Hg10 mi
10:58 pm33 °FClear.10 mph57%30.13 "Hg10 mi
9:58 pm35 °FClear.17 mph51%30.12 "Hg10 mi
8:58 pm37 °FClear.20 mph51%30.09 "Hg10 mi
7:58 pm39 °FClear.16 mph47%30.06 "Hg10 mi
6:58 pm41 °FClear.14 mph45%30.05 "Hg10 mi
5:58 pm42 °FClear.8 mph52%30.02 "Hg10 mi
4:58 pm42 °FClear.8 mph52%30.00 "Hg10 mi
3:58 pm44 °FSunny.9 mph49%29.99 "Hg10 mi
2:58 pm45 °FOvercast.14 mph48%29.97 "Hg10 mi
1:58 pm44 °FPartly sunny.10 mph77%29.96 "Hg10 mi
12:58 pm43 °FOvercast.8 mph77%29.96 "Hg10 mi
11:58 am42 °FOvercast.7 mph81%29.99 "Hg10 mi
10:58 am42 °FMore clouds than sun.9 mph81%30.02 "Hg10 mi
9:58 am40 °FOvercast.7 mph86%30.05 "Hg10 mi
8:58 am38 °FOvercast.3 mph100%30.05 "Hg10 mi
7:58 am37 °FOvercast.3 mph100%30.03 "Hg10 mi
6:58 am35 °FOvercast.No wind100%30.04 "Hg10 mi
5:58 am33 °FClear.No wind100%30.03 "Hg10 mi
Weather by CustomWeather, © 2016

See weather overviewHow to use our weather pages